Location: Chefe Valiua
(16.5342°S, 37.2214°E)
Time: 14:38:11
(UTC+00:00)

Envisat - Pass Details

Date: 13 June 2021
Orbit: 764 x 766 km, 98.1° (Epoch: 25 July)

Event Time Altitude Azimuth Distance (km) Brightness Sun altitude
Rises 02:02:27 0° 23° (NNE) 3,211 6.8 -26.4°
Reaches altitude 10° 02:04:47 10° 27° (NNE) 2,291 6.0 -25.9°
Maximum altitude 02:09:42 53° 104° (ESE) 932 3.6 -24.8°
Enters shadow 02:13:39 16° 176° (S) 1,928 4.9 -23.9°
